Station Historical Data
Daily Summary for April 15, 2017 Units:  English    Metric   Both
« Previous Day
Next Day »
Daily Weekly Monthly Yearly Custom
  High: Low: Average:
Temperature: 72.9 °F 41.9 °F 57.1 °F
Dew Point: 57.3 °F 28.5 °F 43.7 °F
Humidity: 87% 45% 61%
Wind Speed: 19.0mph 0.0mph 3.3mph
Wind Gust: 26.0mph - -
Wind- - SSW
Pressure: 30.28 in 29.90 in -
Precipitation: 0.00 in    
Historical Graphs
 
 
Tabular Data for April 15, 2017
Time Temperature Dew Point Pressure Wind Wind Speed Wind Gust Humidity Rainfall Rate (Hourly)
00:04 48.2 °F 28.9 °F 30.28 in NE 2.0 mph 5.0 mph 47% 0.00 in
00:09 48.1 °F 28.8 °F 30.28 in NE 2.0 mph 5.0 mph 47% 0.00 in
00:14 48.0 °F 28.7 °F 30.28 in NE 2.0 mph 5.0 mph 47% 0.00 in
00:19 47.8 °F 29.0 °F 30.27 in Calm   4.0 mph 48% 0.00 in
00:24 47.8 °F 29.0 °F 30.27 in ENE 4.0 mph 4.0 mph 48% 0.00 in
00:29 47.6 °F 28.9 °F 30.27 in ENE 4.0 mph 5.0 mph 48% 0.00 in
00:34 47.4 °F 28.7 °F 30.27 in ENE 1.0 mph 4.0 mph 48% 0.00 in
00:39 47.3 °F 29.1 °F 30.27 in East 2.0 mph 5.0 mph 49% 0.00 in
00:44 47.1 °F 28.9 °F 30.27 in East 1.0 mph 3.0 mph 49% 0.00 in
00:49 47.0 °F 28.8 °F 30.26 in East 1.0 mph 3.0 mph 49% 0.00 in
00:54 46.8 °F 28.6 °F 30.26 in Calm   3.0 mph 49% 0.00 in
00:59 46.6 °F 28.9 °F 30.26 in Calm   1.0 mph 50% 0.00 in
01:04 46.5 °F 28.8 °F 30.26 in Calm     50% 0.00 in
01:09 46.2 °F 29.1 °F 30.25 in Calm     51% 0.00 in
01:14 46.1 °F 29.0 °F 30.25 in Calm     51% 0.00 in
01:19 46.0 °F 28.9 °F 30.25 in Calm     51% 0.00 in
01:24 45.8 °F 28.7 °F 30.25 in Calm     51% 0.00 in
01:29 45.7 °F 29.1 °F 30.25 in Calm     52% 0.00 in
01:34 45.6 °F 29.0 °F 30.25 in Calm   3.0 mph 52% 0.00 in
01:39 45.5 °F 28.9 °F 30.24 in ENE 2.0 mph 3.0 mph 52% 0.00 in
01:44 45.4 °F 28.8 °F 30.24 in Calm   2.0 mph 52% 0.00 in
01:49 45.3 °F 28.7 °F 30.24 in Calm   1.0 mph 52% 0.00 in
01:54 45.3 °F 28.7 °F 30.24 in Calm   1.0 mph 52% 0.00 in
01:59 45.2 °F 29.1 °F 30.24 in Calm   1.0 mph 53% 0.00 in
02:04 45.2 °F 29.1 °F 30.24 in ENE 1.0 mph 2.0 mph 53% 0.00 in
02:09 45.1 °F 29.0 °F 30.24 in Calm   2.0 mph 53% 0.00 in
02:14 45.0 °F 28.9 °F 30.24 in ENE 1.0 mph 2.0 mph 53% 0.00 in
02:19 45.0 °F 28.9 °F 30.23 in Calm   2.0 mph 53% 0.00 in
02:24 44.9 °F 28.8 °F 30.23 in Calm   2.0 mph 53% 0.00 in
02:29 44.8 °F 28.7 °F 30.23 in Calm   1.0 mph 53% 0.00 in
02:34 44.7 °F 29.1 °F 30.23 in Calm   1.0 mph 54% 0.00 in
02:39 44.7 °F 29.1 °F 30.23 in Calm     54% 0.00 in
02:44 44.6 °F 29.0 °F 30.22 in Calm     54% 0.00 in
02:49 44.5 °F 29.3 °F 30.22 in Calm     55% 0.00 in
02:54 44.5 °F 29.3 °F 30.22 in Calm     55% 0.00 in
02:59 44.5 °F 29.3 °F 30.22 in Calm     55% 0.00 in
03:04 44.4 °F 29.2 °F 30.22 in Calm     55% 0.00 in
03:09 44.3 °F 29.1 °F 30.21 in Calm     55% 0.00 in
03:14 44.3 °F 29.1 °F 30.21 in Calm     55% 0.00 in
03:19 44.2 °F 28.6 °F 30.21 in Calm     54% 0.00 in
03:24 44.1 °F 28.5 °F 30.21 in Calm     54% 0.00 in
03:29 44.0 °F 28.9 °F 30.21 in Calm     55% 0.00 in
03:34 43.8 °F 28.7 °F 30.21 in Calm     55% 0.00 in
03:39 43.7 °F 29.0 °F 30.21 in Calm     56% 0.00 in
03:44 43.5 °F 28.8 °F 30.20 in Calm     56% 0.00 in
03:49 43.3 °F 28.6 °F 30.20 in Calm     56% 0.00 in
03:54 43.1 °F 28.9 °F 30.20 in Calm     57% 0.00 in
03:59 43.0 °F 29.2 °F 30.20 in Calm     58% 0.00 in
04:04 42.8 °F 29.5 °F 30.20 in Calm     59% 0.00 in
04:09 42.7 °F 29.4 °F 30.20 in Calm     59% 0.00 in
04:14 42.6 °F 29.7 °F 30.19 in Calm     60% 0.00 in
04:19 42.5 °F 29.6 °F 30.19 in Calm     60% 0.00 in
04:24 42.5 °F 30.0 °F 30.19 in Calm     61% 0.00 in
04:29 42.5 °F 30.0 °F 30.19 in Calm     61% 0.00 in
04:34 42.5 °F 30.0 °F 30.19 in Calm     61% 0.00 in
04:39 42.5 °F 30.0 °F 30.18 in Calm     61% 0.00 in
04:44 42.5 °F 30.0 °F 30.18 in Calm     61% 0.00 in
04:49 42.4 °F 29.9 °F 30.18 in Calm     61% 0.00 in
04:54 42.4 °F 29.9 °F 30.18 in Calm     61% 0.00 in
04:59 42.3 °F 29.8 °F 30.18 in Calm     61% 0.00 in
05:04 42.2 °F 30.1 °F 30.18 in Calm     62% 0.00 in
05:09 42.2 °F 30.1 °F 30.17 in Calm     62% 0.00 in
05:14 42.2 °F 30.1 °F 30.18 in Calm     62% 0.00 in
05:19 42.0 °F 29.9 °F 30.18 in Calm     62% 0.00 in
05:24 42.0 °F 29.9 °F 30.18 in Calm     62% 0.00 in
05:29 41.9 °F 30.2 °F 30.17 in Calm     63% 0.00 in
05:34 41.9 °F 30.6 °F 30.17 in Calm     64% 0.00 in
05:39 41.9 °F 30.6 °F 30.17 in Calm     64% 0.00 in
05:44 41.9 °F 30.6 °F 30.17 in Calm     64% 0.00 in
05:49 41.9 °F 31.0 °F 30.17 in Calm     65% 0.00 in
05:54 41.9 °F 31.0 °F 30.17 in Calm     65% 0.00 in
05:59 41.9 °F 31.0 °F 30.17 in Calm     65% 0.00 in
06:04 41.9 °F 31.0 °F 30.17 in Calm     65% 0.00 in
06:09 41.9 °F 31.0 °F 30.17 in Calm     65% 0.00 in
06:14 41.9 °F 31.0 °F 30.17 in Calm     65% 0.00 in
06:19 41.9 °F 31.0 °F 30.17 in Calm     65% 0.00 in
06:24 42.0 °F 31.5 °F 30.17 in Calm     66% 0.00 in
06:29 42.0 °F 31.5 °F 30.17 in Calm     66% 0.00 in
06:34 42.0 °F 31.5 °F 30.17 in Calm     66% 0.00 in
06:39 42.1 °F 31.6 °F 30.17 in Calm     66% 0.00 in
06:44 42.2 °F 31.6 °F 30.17 in Calm     66% 0.00 in
06:49 42.2 °F 31.6 °F 30.17 in Calm     66% 0.00 in
06:54 42.2 °F 32.0 °F 30.17 in Calm     67% 0.00 in
06:59 42.3 °F 32.1 °F 30.17 in Calm     67% 0.00 in
07:04 42.4 °F 32.2 °F 30.17 in Calm     67% 0.00 in
07:09 42.5 °F 32.7 °F 30.17 in Calm     68% 0.00 in
07:14 42.5 °F 32.7 °F 30.17 in Calm     68% 0.00 in
07:19 42.7 °F 32.9 °F 30.17 in Calm     68% 0.00 in
07:24 42.9 °F 33.4 °F 30.17 in Calm     69% 0.00 in
07:29 43.1 °F 33.6 °F 30.17 in Calm     69% 0.00 in
07:34 43.4 °F 33.9 °F 30.17 in Calm     69% 0.00 in
07:39 43.8 °F 34.3 °F 30.17 in Calm     69% 0.00 in
07:44 44.2 °F 34.3 °F 30.17 in Calm     68% 0.00 in
07:49 44.6 °F 34.3 °F 30.17 in Calm     67% 0.00 in
07:54 45.2 °F 34.9 °F 30.17 in Calm     67% 0.00 in
07:59 45.7 °F 35.0 °F 30.17 in Calm     66% 0.00 in
08:04 46.4 °F 35.7 °F 30.17 in Calm     66% 0.00 in
08:09 47.1 °F 36.3 °F 30.16 in Calm     66% 0.00 in
08:14 47.8 °F 36.6 °F 30.16 in Calm     65% 0.00 in
08:19 48.8 °F 37.6 °F 30.16 in Calm     65% 0.00 in
08:24 49.7 °F 38.0 °F 30.16 in Calm     64% 0.00 in
08:29 50.7 °F 38.6 °F 30.16 in Calm     63% 0.00 in
08:34 51.8 °F 39.2 °F 30.15 in Calm     62% 0.00 in
08:39 53.1 °F 39.6 °F 30.15 in Calm   3.0 mph 60% 0.00 in
08:44 54.7 °F 40.6 °F 30.15 in South 1.0 mph 4.0 mph 59% 0.00 in
08:49 55.9 °F 40.9 °F 30.14 in South 3.0 mph 6.0 mph 57% 0.00 in
08:54 57.1 °F 41.5 °F 30.15 in SSW 1.0 mph 6.0 mph 56% 0.00 in
08:59 58.3 °F 41.7 °F 30.15 in SSW 3.0 mph 6.0 mph 54% 0.00 in
09:04 59.3 °F 42.6 °F 30.15 in SSW 3.0 mph 6.0 mph 54% 0.00 in
09:09 60.1 °F 41.9 °F 30.15 in SW 3.0 mph 6.0 mph 51% 0.00 in
09:14 60.8 °F 41.5 °F 30.14 in SSW 1.0 mph 6.0 mph 49% 0.00 in
09:19 61.6 °F 43.3 °F 30.14 in WSW 5.0 mph 5.0 mph 51% 0.00 in
09:24 62.2 °F 42.8 °F 30.14 in SW 3.0 mph 7.0 mph 49% 0.00 in
09:29 62.7 °F 42.2 °F 30.14 in SSW 2.0 mph 6.0 mph 47% 0.00 in
09:34 63.2 °F 43.2 °F 30.13 in SSW 3.0 mph 6.0 mph 48% 0.00 in
09:39 63.6 °F 43.5 °F 30.13 in SW 2.0 mph 6.0 mph 48% 0.00 in
09:44 64.1 °F 43.4 °F 30.13 in SSW 3.0 mph 5.0 mph 47% 0.00 in
09:49 64.4 °F 43.7 °F 30.13 in SW 3.0 mph 6.0 mph 47% 0.00 in
09:54 64.8 °F 44.1 °F 30.13 in SSW 3.0 mph 5.0 mph 47% 0.00 in
09:59 65.1 °F 44.4 °F 30.13 in SSW 3.0 mph 5.0 mph 47% 0.00 in
10:04 65.5 °F 44.2 °F 30.12 in Calm   5.0 mph 46% 0.00 in
10:09 65.8 °F 44.4 °F 30.13 in SW 3.0 mph 3.0 mph 46% 0.00 in
10:14 66.0 °F 44.0 °F 30.12 in WSW 2.0 mph 5.0 mph 45% 0.00 in
10:19 66.1 °F 44.7 °F 30.13 in West 1.0 mph 4.0 mph 46% 0.00 in
10:24 66.3 °F 45.5 °F 30.13 in WSW 3.0 mph 5.0 mph 47% 0.00 in
10:29 66.3 °F 45.5 °F 30.13 in West 2.0 mph 5.0 mph 47% 0.00 in
10:34 66.3 °F 44.9 °F 30.13 in West 3.0 mph 9.0 mph 46% 0.00 in
10:39 66.2 °F 44.8 °F 30.13 in West 4.0 mph 9.0 mph 46% 0.00 in
10:44 66.0 °F 44.6 °F 30.13 in West 3.0 mph 8.0 mph 46% 0.00 in
10:49 65.8 °F 44.4 °F 30.13 in West 3.0 mph 7.0 mph 46% 0.00 in
10:54 65.4 °F 44.1 °F 30.13 in WNW 4.0 mph 4.0 mph 46% 0.00 in
10:59 65.1 °F 44.4 °F 30.13 in West 4.0 mph 8.0 mph 47% 0.00 in
11:04 64.7 °F 45.1 °F 30.13 in West 4.0 mph 8.0 mph 49% 0.00 in
11:09 64.4 °F 45.3 °F 30.13 in West 4.0 mph 8.0 mph 50% 0.00 in
11:14 63.9 °F 45.4 °F 30.13 in West 2.0 mph 7.0 mph 51% 0.00 in
11:19 63.5 °F 47.5 °F 30.13 in Calm   4.0 mph 56% 0.00 in
11:24 63.3 °F 49.2 °F 30.12 in Calm   2.0 mph 60% 0.00 in
11:29 63.0 °F 48.4 °F 30.12 in Calm   3.0 mph 59% 0.00 in
11:34 62.7 °F 48.6 °F 30.12 in SW 1.0 mph 3.0 mph 60% 0.00 in
11:39 62.5 °F 48.0 °F 30.12 in Calm   2.0 mph 59% 0.00 in
11:44 62.3 °F 48.2 °F 30.12 in Calm   3.0 mph 60% 0.00 in
11:49 62.2 °F 49.0 °F 30.11 in Calm   1.0 mph 62% 0.01 in
11:54 62.1 °F 48.9 °F 30.11 in SSW 1.0 mph 2.0 mph 62% 0.01 in
11:59 62.0 °F 49.3 °F 30.11 in SSW 1.0 mph 2.0 mph 63% 0.01 in
12:04 61.9 °F 49.2 °F 30.11 in SSW 1.0 mph 2.0 mph 63% 0.01 in
12:09 61.8 °F 49.1 °F 30.11 in SSW 1.0 mph 4.0 mph 63% 0.01 in
12:14 61.8 °F 49.5 °F 30.11 in SSW 2.0 mph 5.0 mph 64% 0.01 in
12:19 61.7 °F 49.0 °F 30.11 in SW 1.0 mph 5.0 mph 63% 0.01 in
12:24 61.6 °F 49.3 °F 30.11 in SW 2.0 mph 5.0 mph 64% 0.01 in
12:29 61.4 °F 49.1 °F 30.11 in SW 3.0 mph 5.0 mph 64% 0.01 in
12:34 61.0 °F 49.1 °F 30.11 in SW 3.0 mph 8.0 mph 65% 0.02 in
12:39 60.7 °F 50.1 °F 30.11 in SW 1.0 mph 5.0 mph 68% 0.02 in
12:44 60.5 °F 50.3 °F 30.11 in South 2.0 mph 3.0 mph 69% 0.03 in
12:49 60.3 °F 50.5 °F 30.11 in SSW 4.0 mph 7.0 mph 70% 0.02 in
12:54 59.8 °F 49.6 °F 30.11 in SW 3.0 mph 7.0 mph 69% 0.02 in
12:59 59.5 °F 49.7 °F 30.11 in SSW 3.0 mph 8.0 mph 70% 0.02 in
13:04 59.2 °F 49.4 °F 30.11 in SSW 3.0 mph 8.0 mph 70% 0.02 in
13:09 59.0 °F 49.6 °F 30.11 in SW 3.0 mph 8.0 mph 71% 0.02 in
13:14 58.7 °F 49.7 °F 30.11 in SW 4.0 mph 8.0 mph 72% 0.03 in
13:19 58.3 °F 49.3 °F 30.11 in SW 4.0 mph 7.0 mph 72% 0.03 in
13:24 58.2 °F 49.6 °F 30.10 in South 8.0 mph 9.0 mph 73% 0.03 in
13:29 57.8 °F 49.6 °F 30.10 in SW 6.0 mph 10.0 mph 74% 0.03 in
13:34 57.6 °F 49.7 °F 30.09 in SW 5.0 mph 10.0 mph 75% 0.03 in
13:39 57.3 °F 49.8 °F 30.08 in SW 4.0 mph 8.0 mph 76% 0.03 in
13:44 57.1 °F 50.0 °F 30.07 in SSW 7.0 mph 9.0 mph 77% 0.02 in
13:49 57.0 °F 50.2 °F 30.08 in SSW 6.0 mph 10.0 mph 78% 0.02 in
13:54 56.8 °F 50.4 °F 30.07 in South 4.0 mph 11.0 mph 79% 0.02 in
13:59 56.6 °F 50.2 °F 30.08 in SSW 5.0 mph 13.0 mph 79% 0.03 in
14:04 56.4 °F 50.0 °F 30.07 in South 5.0 mph 14.0 mph 79% 0.03 in
14:09 56.3 °F 50.2 °F 30.07 in South 8.0 mph 10.0 mph 80% 0.06 in
14:14 56.0 °F 50.3 °F 30.06 in South 4.0 mph 9.0 mph 81% 0.06 in
14:19 56.0 °F 50.9 °F 30.05 in South 8.0 mph 8.0 mph 83% 0.06 in
14:24 56.2 °F 51.4 °F 30.04 in South 4.0 mph 10.0 mph 84% 0.06 in
14:29 56.7 °F 52.6 °F 30.04 in South 6.0 mph 9.0 mph 86% 0.06 in
14:34 57.3 °F 53.5 °F 30.03 in South 5.0 mph 10.0 mph 87% 0.05 in
14:39 58.2 °F 54.3 °F 30.03 in SSW 6.0 mph 10.0 mph 87% 0.05 in
14:44 59.0 °F 55.1 °F 30.03 in South 6.0 mph 10.0 mph 87% 0.05 in
14:49 59.7 °F 55.8 °F 30.03 in South 6.0 mph 11.0 mph 87% 0.05 in
14:54 62.3 °F 56.7 °F 30.02 in SSW 6.0 mph 18.0 mph 82% 0.05 in
14:59 63.2 °F 56.2 °F 30.02 in SSW 6.0 mph 15.0 mph 78% 0.04 in
15:04 64.5 °F 57.1 °F 30.02 in South 6.0 mph 12.0 mph 77% 0.04 in
15:09 65.1 °F 56.6 °F 30.01 in SSW 7.0 mph 16.0 mph 74% 0.01 in
15:14 65.8 °F 56.9 °F 30.01 in SSW 6.0 mph 13.0 mph 73% 0.00 in
15:19 65.9 °F 56.6 °F 30.00 in SE 8.0 mph 17.0 mph 72% 0.00 in
15:24 67.0 °F 56.9 °F 29.99 in South 10.0 mph 14.0 mph 70% 0.00 in
15:29 67.6 °F 56.7 °F 29.99 in SW 7.0 mph 20.0 mph 68% 0.00 in
15:34 68.1 °F 57.1 °F 29.99 in SSW 8.0 mph 20.0 mph 68% 0.00 in
15:39 68.8 °F 56.6 °F 29.98 in SSW 8.0 mph 17.0 mph 65% 0.00 in
15:44 69.4 °F 56.3 °F 29.98 in SSW 8.0 mph 17.0 mph 63% 0.00 in
15:49 69.8 °F 56.6 °F 29.98 in SSW 8.0 mph 17.0 mph 63% 0.00 in
15:54 69.9 °F 56.7 °F 29.98 in SSW 8.0 mph 16.0 mph 63% 0.00 in
15:59 70.6 °F 56.5 °F 29.97 in SW 8.0 mph 15.0 mph 61% 0.00 in
16:04 70.6 °F 56.5 °F 29.97 in SW 11.0 mph 16.0 mph 61% 0.00 in
16:09 70.8 °F 56.2 °F 29.96 in SSE 10.0 mph 20.0 mph 60% 0.00 in
16:14 71.4 °F 57.2 °F 29.96 in SW 5.0 mph 14.0 mph 61% 0.00 in
16:19 72.0 °F 56.4 °F 29.96 in SW 19.0 mph 22.0 mph 58% 0.00 in
16:24 71.9 °F 56.8 °F 29.95 in SSW 8.0 mph 19.0 mph 59% 0.00 in
16:29 71.9 °F 56.8 °F 29.95 in SW 10.0 mph 21.0 mph 59% 0.00 in
16:34 72.3 °F 56.7 °F 29.95 in SW 10.0 mph 21.0 mph 58% 0.00 in
16:39 72.6 °F 57.0 °F 29.95 in SW 9.0 mph 19.0 mph 58% 0.00 in
16:44 72.4 °F 56.8 °F 29.95 in SSW 10.0 mph 20.0 mph 58% 0.00 in
16:49 72.8 °F 56.7 °F 29.95 in SW 9.0 mph 20.0 mph 57% 0.00 in
16:54 72.9 °F 57.3 °F 29.95 in SW 11.0 mph 13.0 mph 58% 0.00 in
16:59 72.9 °F 56.3 °F 29.95 in SW 9.0 mph 20.0 mph 56% 0.00 in
17:04 72.9 °F 55.8 °F 29.95 in SW 11.0 mph 22.0 mph 55% 0.00 in
17:09 72.9 °F 55.8 °F 29.95 in SSW 7.0 mph 21.0 mph 55% 0.00 in
17:14 72.7 °F 55.6 °F 29.95 in WSW 13.0 mph 21.0 mph 55% 0.00 in
17:19 72.7 °F 55.1 °F 29.94 in WSW 13.0 mph 21.0 mph 54% 0.00 in
17:24 72.5 °F 54.9 °F 29.94 in WSW 13.0 mph 24.0 mph 54% 0.00 in
17:29 72.5 °F 54.9 °F 29.95 in SW 12.0 mph 24.0 mph 54% 0.00 in
17:34 72.2 °F 54.6 °F 29.95 in WSW 11.0 mph 26.0 mph 54% 0.00 in
17:39 71.6 °F 54.6 °F 29.94 in WSW 12.0 mph 26.0 mph 55% 0.00 in
17:44 71.2 °F 54.2 °F 29.94 in WNW 9.0 mph 22.0 mph 55% 0.00 in
17:49 70.8 °F 53.8 °F 29.94 in WSW 12.0 mph 19.0 mph 55% 0.00 in
17:54 70.8 °F 53.8 °F 29.94 in SSW 7.0 mph 19.0 mph 55% 0.00 in
17:59 70.9 °F 54.4 °F 29.94 in WSW 11.0 mph 19.0 mph 56% 0.00 in
18:04 70.9 °F 53.9 °F 29.94 in WSW 11.0 mph 21.0 mph 55% 0.00 in
18:09 70.9 °F 53.9 °F 29.94 in WSW 11.0 mph 21.0 mph 55% 0.00 in
18:14 70.9 °F 53.9 °F 29.94 in WSW 10.0 mph 18.0 mph 55% 0.00 in
18:19 70.8 °F 53.8 °F 29.94 in WSW 9.0 mph 18.0 mph 55% 0.00 in
18:24 70.5 °F 53.6 °F 29.94 in WSW 8.0 mph 14.0 mph 55% 0.00 in
18:29 70.1 °F 53.7 °F 29.94 in WSW 8.0 mph 14.0 mph 56% 0.00 in
18:34 69.5 °F 53.1 °F 29.94 in WSW 6.0 mph 15.0 mph 56% 0.00 in
18:39 69.2 °F 53.3 °F 29.94 in SSW 9.0 mph 15.0 mph 57% 0.00 in
18:44 69.1 °F 53.7 °F 29.93 in SW 7.0 mph 16.0 mph 58% 0.00 in
18:49 68.6 °F 52.8 °F 29.93 in SW 6.0 mph 17.0 mph 57% 0.00 in
18:54 67.9 °F 52.6 °F 29.93 in WSW 7.0 mph 17.0 mph 58% 0.00 in
18:59 67.4 °F 52.6 °F 29.93 in SW 8.0 mph 17.0 mph 59% 0.00 in
19:04 67.0 °F 52.7 °F 29.92 in SW 7.0 mph 13.0 mph 60% 0.00 in
19:09 66.8 °F 52.5 °F 29.92 in SW 7.0 mph 15.0 mph 60% 0.00 in
19:14 66.6 °F 52.7 °F 29.92 in SW 7.0 mph 15.0 mph 61% 0.00 in
19:19 66.6 °F 52.7 °F 29.92 in SW 6.0 mph 15.0 mph 61% 0.00 in
19:24 66.6 °F 52.7 °F 29.92 in WSW 5.0 mph 15.0 mph 61% 0.00 in
19:29 66.7 °F 52.8 °F 29.92 in SW 7.0 mph 15.0 mph 61% 0.00 in
19:34 66.6 °F 52.7 °F 29.92 in SW 6.0 mph 8.0 mph 61% 0.00 in
19:39 66.6 °F 53.2 °F 29.92 in SW 6.0 mph 9.0 mph 62% 0.00 in
19:44 66.6 °F 53.2 °F 29.92 in SW 5.0 mph 9.0 mph 62% 0.00 in
19:49 66.5 °F 53.1 °F 29.92 in WSW 7.0 mph 11.0 mph 62% 0.00 in
19:54 66.6 °F 52.7 °F 29.92 in WSW 6.0 mph 14.0 mph 61% 0.00 in
19:59 66.4 °F 52.5 °F 29.92 in SW 7.0 mph 14.0 mph 61% 0.00 in
20:04 65.8 °F 52.0 °F 29.92 in WSW 6.0 mph 12.0 mph 61% 0.00 in
20:09 65.0 °F 51.2 °F 29.92 in WSW 6.0 mph 11.0 mph 61% 0.00 in
20:14 64.3 °F 51.0 °F 29.92 in WSW 6.0 mph 11.0 mph 62% 0.00 in
20:19 63.7 °F 50.9 °F 29.92 in WSW 4.0 mph 10.0 mph 63% 0.00 in
20:24 63.2 °F 50.8 °F 29.92 in SW 5.0 mph 9.0 mph 64% 0.00 in
20:29 62.9 °F 50.5 °F 29.92 in SW 5.0 mph 13.0 mph 64% 0.00 in
20:34 62.5 °F 50.6 °F 29.92 in SW 5.0 mph 13.0 mph 65% 0.00 in
20:39 62.1 °F 50.2 °F 29.92 in SSW 4.0 mph 8.0 mph 65% 0.00 in
20:44 61.9 °F 50.4 °F 29.92 in SW 1.0 mph 7.0 mph 66% 0.00 in
20:49 61.6 °F 50.1 °F 29.92 in WSW 3.0 mph 8.0 mph 66% 0.00 in
20:54 61.4 °F 50.3 °F 29.92 in SW 5.0 mph 7.0 mph 67% 0.00 in
20:59 61.1 °F 50.5 °F 29.92 in SW 3.0 mph 6.0 mph 68% 0.00 in
21:04 61.0 °F 50.4 °F 29.92 in SW 3.0 mph 6.0 mph 68% 0.00 in
21:09 60.8 °F 50.2 °F 29.92 in SW 2.0 mph 4.0 mph 68% 0.00 in
21:14 60.6 °F 50.4 °F 29.92 in SW 2.0 mph 5.0 mph 69% 0.00 in
21:19 60.4 °F 50.2 °F 29.92 in SW 2.0 mph 5.0 mph 69% 0.00 in
21:24 60.2 °F 50.0 °F 29.92 in SW 3.0 mph 4.0 mph 69% 0.00 in
21:29 60.0 °F 49.8 °F 29.92 in SW 1.0 mph 3.0 mph 69% 0.00 in
21:34 59.9 °F 50.1 °F 29.92 in SW 2.0 mph 5.0 mph 70% 0.00 in
21:39 59.7 °F 49.9 °F 29.92 in SW 2.0 mph 5.0 mph 70% 0.00 in
21:44 59.6 °F 50.2 °F 29.92 in SSW 2.0 mph 5.0 mph 71% 0.00 in
21:49 59.6 °F 50.2 °F 29.91 in SSW 3.0 mph 4.0 mph 71% 0.00 in
21:54 59.5 °F 50.1 °F 29.91 in SW 3.0 mph 3.0 mph 71% 0.00 in
21:59 59.4 °F 50.4 °F 29.91 in SW 1.0 mph 3.0 mph 72% 0.00 in
22:04 59.4 °F 50.4 °F 29.91 in SW 1.0 mph 3.0 mph 72% 0.00 in
22:09 59.4 °F 50.4 °F 29.91 in SW 1.0 mph 3.0 mph 72% 0.00 in
22:14 59.4 °F 50.7 °F 29.91 in SW 1.0 mph 4.0 mph 73% 0.00 in
22:19 59.4 °F 50.7 °F 29.91 in SW 1.0 mph 3.0 mph 73% 0.00 in
22:24 59.5 °F 51.2 °F 29.91 in SSW 2.0 mph 4.0 mph 74% 0.00 in
22:29 59.7 °F 51.8 °F 29.91 in South 4.0 mph 5.0 mph 75% 0.00 in
22:34 60.8 °F 53.2 °F 29.91 in SSW 3.0 mph 8.0 mph 76% 0.00 in
22:39 61.7 °F 53.7 °F 29.91 in SSW 4.0 mph 9.0 mph 75% 0.00 in
22:44 62.9 °F 53.7 °F 29.91 in SW 4.0 mph 12.0 mph 72% 0.00 in
22:49 64.1 °F 54.1 °F 29.91 in South 4.0 mph 13.0 mph 70% 0.00 in
22:54 65.2 °F 54.4 °F 29.91 in SW 4.0 mph 10.0 mph 68% 0.00 in
22:59 65.7 °F 54.4 °F 29.90 in WSW 3.0 mph 8.0 mph 67% 0.00 in
23:04 66.1 °F 54.4 °F 29.91 in SW 4.0 mph 8.0 mph 66% 0.00 in
23:09 66.5 °F 54.4 °F 29.91 in SW 4.0 mph 9.0 mph 65% 0.00 in
23:14 66.6 °F 54.5 °F 29.90 in WSW 5.0 mph 8.0 mph 65% 0.00 in
23:19 66.7 °F 54.1 °F 29.90 in SW 4.0 mph 7.0 mph 64% 0.00 in
23:24 66.7 °F 54.1 °F 29.91 in SW 2.0 mph 8.0 mph 64% 0.00 in
23:29 66.8 °F 54.2 °F 29.90 in SW 4.0 mph 8.0 mph 64% 0.00 in
23:34 66.8 °F 54.2 °F 29.90 in SW 4.0 mph 8.0 mph 64% 0.00 in
23:39 66.8 °F 54.2 °F 29.90 in SW 4.0 mph 8.0 mph 64% 0.00 in
23:44 66.8 °F 54.2 °F 29.90 in SW 4.0 mph 8.0 mph 64% 0.00 in
23:49 66.7 °F 54.1 °F 29.90 in SW 3.0 mph 8.0 mph 64% 0.00 in
23:54 66.7 °F 54.1 °F 29.90 in SW 3.0 mph 8.0 mph 64% 0.00 in
23:59 66.7 °F 54.1 °F 29.90 in SW 3.0 mph 8.0 mph 64% 0.00 in
Buffalo, New York, USA
Compliments of Weather Underground - 2.5 mb